Weather History for Crestview, FL

Change the Weather History Date:

Thursday, November 1, 2012

  Actual Average Record
Temperature  
Mean Temperature 60 °F -  
Max Temperature 75 °F 77 °F 86 °F (1950)
Min Temperature 46 °F 50 °F 27 °F (1993)
Degree Days  
Heating Degree Days 4    
Growing Degree Days 10 (Base 50)    
Moisture  
Dew Point 46 °F    
Average Humidity 62    
Maximum Humidity 90    
Minimum Humidity 28    
Precipitation  
Precipitation 0.00 in - - ()
Sea Level Pressure  
Sea Level Pressure 30.02 in    
Wind  
Wind Speed 4 mph (NNW)    
Max Wind Speed 13 mph    
Max Gust Speed -    
Visibility 10 miles    
Events      
Averages and records for this station are not official NWS values.
T = Trace of Precipitation, MM = Missing Value Source: NWS Daily Summary

Daily Weather History Graph

Daily Weather History Graph

Search for Another Location

Airport:

Trip Planner

Search our weather history database for the weather conditions in past years. The results will help you decide how hot, cold, wet, or windy it might be!

Date:

Astronomy

Nov. 01, 2012 Rise Set
Actual Time 7:01 AM CDT 5:57 PM CDT
Civil Twilight 6:36 AM CDT 6:22 PM CDT
Nautical Twilight 6:07 AM CDT 6:50 PM CDT
Astronomical Twilight 5:39 AM CDT 7:19 PM CDT
Moon 8:02 PM CDT (11/1) 9:25 AM CDT (11/1)
Length of Visible Light 11h 45m
Length of Day
10h 56m
Waning Gibbous, 93% of the Moon is Illuminated
Nov 1
Waning Gibbous
Nov 6
Last Quarter
Nov 13
New
Nov 20
First Quarter
Nov 28
Full

Hourly Weather History & Observations

Time (CDT) Temp. Dew Point Humidity Pressure Visibility Wind Dir Wind Speed Gust Speed Precip Events Conditions
12:53 AM 61.0 °F 57.0 °F 87% 29.97 in 10.0 mi WSW 5.8 mph - N/A   Partly Cloudy
1:53 AM 62.1 °F 57.9 °F 86% 29.98 in 10.0 mi NNW 6.9 mph - N/A   Overcast
2:53 AM 61.0 °F 57.0 °F 87% 29.99 in 9.0 mi NNW 3.5 mph - N/A   Overcast
3:53 AM 60.1 °F 55.9 °F 86% 29.99 in 9.0 mi Calm Calm - N/A   Overcast
4:53 AM 57.9 °F 55.0 °F 90% 29.99 in 9.0 mi Calm Calm - N/A   Mostly Cloudy
5:53 AM 57.9 °F 50.0 °F 75% 30.01 in 10.0 mi NNE 5.8 mph - N/A   Mostly Cloudy
6:53 AM 55.0 °F 46.9 °F 74% 30.02 in 10.0 mi Calm Calm - N/A   Partly Cloudy
7:53 AM 54.0 °F 48.0 °F 80% 30.04 in 10.0 mi Calm Calm - N/A   Clear
8:53 AM 61.0 °F 41.0 °F 48% 30.06 in 10.0 mi NE 4.6 mph - N/A   Clear
9:53 AM 66.0 °F 36.0 °F 33% 30.08 in 10.0 mi NNE 6.9 mph - N/A   Clear
10:53 AM 70.0 °F 36.0 °F 29% 30.09 in 10.0 mi NNW 5.8 mph - N/A   Clear
11:53 AM 71.1 °F 37.0 °F 29% 30.07 in 10.0 mi NNW 8.1 mph - N/A   Clear
12:53 PM 73.0 °F 39.0 °F 29% 30.03 in 10.0 mi Variable 4.6 mph - N/A   Clear
1:53 PM 75.0 °F 39.9 °F 28% 30.00 in 10.0 mi NW 10.4 mph - N/A   Clear
2:53 PM 75.0 °F 39.9 °F 28% 29.99 in 10.0 mi NNW 12.7 mph - N/A   Clear
3:53 PM 75.0 °F 42.1 °F 31% 29.98 in 10.0 mi NW 8.1 mph - N/A   Clear
4:53 PM 73.9 °F 43.0 °F 33% 29.98 in 10.0 mi NNW 8.1 mph - N/A   Clear
5:53 PM 69.1 °F 46.9 °F 45% 30.00 in 10.0 mi NNW 3.5 mph - N/A   Clear
6:53 PM 57.9 °F 48.0 °F 70% 30.02 in 10.0 mi Calm Calm - N/A   Clear
7:53 PM 53.1 °F 46.0 °F 77% 30.03 in 10.0 mi Calm Calm - N/A   Clear
8:53 PM 52.0 °F 46.9 °F 83% 30.05 in 10.0 mi SSW 4.6 mph - N/A   Clear
9:53 PM 48.9 °F 46.0 °F 90% 30.06 in 10.0 mi Calm Calm - N/A   Clear
10:53 PM 46.9 °F 44.1 °F 90% 30.06 in 10.0 mi Calm Calm - N/A   Clear
11:53 PM 46.0 °F 43.0 °F 89% 30.06 in 10.0 mi Calm Calm - N/A   Clear